Location: Cannifist
(18.2333°N, 63.0167°W)
Time: 14:40:55
(UTC+00:00)

Daily predictions for brighter satellites

Satellite Brightness Start Highest point End
(mag) Time Altitude Azimuth Time Altitude Azimuth Time Altitude Azimuth
Star 37E S/N 40099 4.4 22:29:55 10° WNW 22:34:07 65° SSW 22:37:49 10° ESE
YAOGAN 1 3.3 22:30:47 10° SE 22:34:33 30° ENE 22:38:19 10° NNE
CSL-04 Rocket 4.5 22:30:02 10° SE 22:34:47 30° ENE 22:39:30 10° NNE
Palapa 6 Rocket 4.3 22:32:43 10° SSW 22:35:39 21° SSE 22:38:47 10° ESE
Yuri Rocket 4.0 22:30:41 10° WNW 22:37:41 72° SSW 22:42:44 10° ESE
Cosmos 1570 Rocket 4.2 22:35:22 10° S 22:40:25 52° ESE 22:45:29 10° NNE
Cosmos 540 Rocket 4.1 22:39:52 10° SSE 22:44:25 33° E 22:48:58 10° NE
Cosmos 44 3.6 22:40:38 10° N 22:44:56 40° ENE 22:49:25 10° SE
Cosmos 1933 Rocket 4.3 22:40:37 10° SSW 22:44:57 58° W 22:49:17 10° N
SL-4 R/B 4.4 22:43:21 10° WNW 22:47:20 29° WSW 22:51:05 10° S
Cosmos 1891 Rocket 4.4 22:45:25 10° S 22:51:28 69° E 22:57:39 10° N
APEX 3.5 22:50:16 10° S 22:54:10 71° ESE 22:59:11 10° NNE
CZ-3A R/B 4.2 22:10:53 10° WSW 22:56:55 66° SSE 23:03:40 15° E
CSL-04 Debris 4.3 22:51:56 10° SSE 22:57:13 54° ENE 23:02:31 10° N
FALCON 9 R/B 3.9 22:37:08 10° WNW 23:00:29 52° NNE 23:05:52 16° E
NOAA 11 4.1 23:00:30 10° SSE 23:05:56 82° ENE 23:11:22 10° N
BREEZE-M DEB (TANK) 3.7 23:06:56 10° NNW 23:09:43 19° NE 23:10:07 19° NE
STARLINK-29 4.3 23:14:20 10° N 23:16:59 24° NE 23:16:59 24° NE
Cosmos 1464 Rocket 4.4 23:11:31 10° SSW 23:17:48 68° W 23:24:09 10° N
HJ-1C 3.8 23:15:51 10° SSE 23:18:56 38° ENE 23:22:00 10° N
Cosmos 1656 4.0 23:17:14 10° S 23:22:17 40° ESE 23:26:17 16° NE
ATLAS 2AS CENTAUR R/B 3.3 23:15:13 10° S 23:22:18 43° ESE 23:28:59 13° NE
H-2A R/B 3.1 23:24:52 25° ENE 23:24:52 25° ENE 23:28:58 10° NNE
STARLINK-60 3.4 23:22:10 10° NW 23:25:25 62° SW 23:27:34 19° SSE
COSMOS 2487 2.2 23:24:12 10° N 23:27:37 68° ENE 23:29:56 19° SSE
Nadezhda 4 Rocket 4.3 23:21:54 10° NNE 23:27:47 40° E 23:33:39 10° SSE
Cosmos 1697 Rocket 4.0 23:25:25 10° SSE 23:28:13 21° SE 23:28:13 21° SE
STARLINK-52 4.4 23:29:29 10° NNW 23:31:27 26° NNE 23:31:27 26° NNE
Cosmos 2034 Rocket 4.5 23:34:30 10° SSW 23:40:35 61° W 23:46:39 10° N
Okean 1 3.2 23:37:32 10° N 23:41:30 89° W 23:45:27 10° S
Cosmos 405 3.2 23:38:13 10° NNW 23:41:44 67° W 23:45:14 10° S
Okean 1-7 3.3 23:41:58 10° NNW 23:46:17 67° W 23:50:37 10° S
Cosmos 1500 3.1 23:44:06 10° S 23:47:54 86° W 23:48:31 61° N
GPS 2-12 Rocket1 2.8 23:43:28 10° WSW 23:47:56 86° SSE 23:48:21 73° E
USA 267 3.2 23:46:58 34° ENE 23:49:56 64° SE 23:56:22 10° SSW
MOS 1 4.3 23:53:00 53° E 23:53:21 54° ENE 23:58:50 10° N
FALCON 9 DEB 4.2 23:51:48 10° NW 23:54:16 43° WNW 23:54:16 43° WNW
GPS 2-18 Rocket1 3.7 23:51:51 10° W 23:55:08 52° NW 23:55:08 52° NW
